Regional Weather Roundup
Issued by NWS

Home | Current Version | Previous Version | Text Only | Print | Product List | Glossary Off
Versions: 1 2 3 4 5 6 7 8 9 10 11 12 13 14 15 16 17 18 19 20 21 22 23 24 25 26 27 28 29 30 31 32 33 34 35 36 37 38 39 40 41 42 43 44 45 46 47 48 49 50

000
ASUS43 KBIS 230520
RWRND

NORTH DAKOTA REGIONAL WEATHER ROUNDUP
NATIONAL WEATHER SERVICE BISMARCK ND
1200 AM CDT WED APR 23 2014

NOTE: "FAIR" INDICATES FEW OR NO CLOUDS BELOW 12,000 FEET WITH NO
SIGNIFICANT WEATHER AND/OR OBSTRUCTIONS TO VISIBILITY.


NDZ001>003-009>011-017-230600-
NORTHWEST NORTH DAKOTA

CITY           SKY/WX    TMP DP  RH WIND       PRES   REMARKS
WILLISTON      CLOUDY    58  31  35 E14G26    29.63F
MINOT          PTCLDY    50  33  52 E20G26    29.78F
MINOT AFB      PTCLDY    49  35  58 SE20      29.78F
$$

NDZ018>021-031>035-040>046-230600-
SOUTHWEST NORTH DAKOTA

CITY           SKY/WX    TMP DP  RH WIND       PRES   REMARKS
BISMARCK       CLOUDY    57  32  38 E20G28    29.74S
DICKINSON      CLOUDY    53  30  41 E23G31    29.57F
GARRISON         N/A     51  34  52 E24G31    29.72F
HETTINGER ARPT CLOUDY    55  30  38 E25G36    29.57F
$$

NDZ004>008-012>016-024-026-027-054-230600-
NORTHEAST NORTH DAKOTA

CITY           SKY/WX    TMP DP  RH WIND       PRES   REMARKS
GRAND FORKS    PTCLDY    48  28  46 E15       29.97F
GRND FRKS AFB  MOCLDY    45  31  58 E10       29.97F
DEVILS LAKE    PTCLDY    46  30  53 SE15      29.91F
$$

NDZ022-023-025-028>030-036>039-047>053-230600-
SOUTHEAST NORTH DAKOTA

CITY           SKY/WX    TMP DP  RH WIND       PRES   REMARKS
FARGO          PTCLDY    50  31  48 E13       29.97S
JAMESTOWN      PTCLDY    49  34  56 SE17G25   29.87F
$$




USA.gov is the U.S. government's official web portal to all federal, state and local government web resources and services.